[[{"header":{"parameterUnit":"m.s-1","parameterCategory":1,"la1":30.2991,"la2":30.254,"lo1":-89.0895,"lo2":-89.0444,"dy":0.0017,"dx":0.0017,"nx":28,"ny":28,"refTime":"2024-07-17T21:00:00:Z","depth":0,"parameterNumber":2,"parameterNumberName":"U-component_of_WINDS"},"data":[0,0,0,0,0,0,0,0,0,0,0,0,0,0,0,0,0,0,0,0,0,0,0,0,0,0,0,0,0,0,0,0,0,0,0,0,0,0,0,0,0,0,0,0,0,0,0,0,0,0,0,0,0,0,0,0,0,0,0.2611,0.2611,0,0.264,0.2641,0.2641,0.2664,0.2664,0.2664,0.2664,0.2696,0.2697,0.2698,0,0,0,0,0,0,0,0,0,0,0,0,0,0.2575,0.2575,0.2611,0.2611,0.2611,0.264,0.2641,0.2641,0.2664,0.2664,0.2664,0.2664,0.2696,0.2697,0.2698,0,0,0,0,0,0,0,0,0,0,0,0,0,0.2596,0.2576,0.2611,0.2626,0.2628,0.264,0.2641,0.2641,0.2664,0.2664,0.2664,0.2665,0.2696,0.2697,0.2698,0.2697,0,0,0.2701,0.2701,0,0,0,0,0,0,0,0,0.2595,0.2597,0.2623,0.2625,0.2627,0.2649,0.264,0.266,0.2664,0.265,0.2664,0.2665,0.268,0.2683,0.2687,0.2699,0.27,0.2701,0.2701,0.2702,0.2702,0,0,0,0,0,0,0,0.2593,0.2596,0.2622,0.2624,0.2626,0.2632,0.2635,0.2644,0.2663,0.2651,0.2653,0.2656,0.2681,0.2686,0.2688,0.2701,0.2701,0.2702,0.2702,0.2703,0.2713,0.2713,0,0,0,0,0,0,0.2589,0.2595,0.2621,0.2623,0.2611,0.2632,0.2636,0.2641,0.2663,0.2667,0.2656,0.2657,0.2685,0.2687,0.269,0.269,0.2702,0.2703,0.2703,0.2713,0.2713,0.2712,0,0,0,0,0,0,0.2588,0.2591,0.262,0.261,0.2614,0.2633,0.2638,0.2642,0.2647,0.2666,0.267,0.2657,0.2685,0.2688,0.2695,0.2691,0.2703,0.2704,0.2714,0.2713,0.2713,0.2691,0,0,0,0,0,0,0.2587,0.2591,0.2591,0.2609,0.2614,0.2625,0.2638,0.2642,0.2648,0.265,0.2669,0.2672,0.2685,0.2693,0.2696,0.2693,0.2705,0.2714,0.2713,0.2713,0.2692,0.269,0.2688,0,0,0,0,0,0.2586,0.2584,0.2591,0.2594,0.2614,0.2624,0.2627,0.2642,0.2648,0.2648,0.266,0.2672,0.2691,0.2694,0.2697,0.2694,0.2714,0.2713,0.2713,0.2693,0.269,0.2688,0,0,0,0,0,0,0.2566,0.2587,0.2594,0.2598,0.2609,0.2628,0.2629,0.2639,0.2649,0.265,0.2668,0.2672,0.2677,0.2687,0.2689,0.2695,0.2704,0.2704,0.2688,0.2686,0.2684,0.2681,0.2706,0,0,0,0,0,0.2561,0.2567,0.2586,0.2588,0.2593,0.261,0.2615,0.2625,0.2637,0.2642,0.2655,0.2667,0.2676,0.2682,0.2691,0.2694,0.2698,0.2694,0.2691,0.269,0.2689,0.2691,0.2689,0.271,0.271,0.271,0,0,0.2553,0.2566,0.2568,0.2584,0.2594,0.26,0.2614,0.262,0.2624,0.2644,0.265,0.266,0.2675,0.2679,0.2682,0.2687,0.2684,0.2689,0.2687,0.2688,0.269,0.2688,0.2686,0.271,0.271,0.271,0,0,0.2541,0.2551,0.2553,0.2562,0.2577,0.2588,0.2588,0.2606,0.2613,0.262,0.2634,0.264,0.2655,0.2665,0.2671,0.2662,0.2673,0.2665,0.2654,0.2655,0.2653,0.2652,0.2648,0.2646,0.2664,0.2664,0.2664,0,0.2529,0.2538,0.2553,0.2558,0.2565,0.2581,0.2584,0.2592,0.2609,0.2613,0.2618,0.2637,0.2648,0.2655,0.2652,0.2658,0.2659,0.2663,0.2652,0.2651,0.265,0.2646,0.2645,0.2663,0.2663,0.2663,0.2663,0,0.2523,0.2529,0.2529,0.2544,0.255,0.2554,0.2569,0.2574,0.2584,0.2594,0.2601,0.2615,0.2627,0.2629,0.2639,0.2637,0.264,0.2649,0.2659,0.2646,0.2643,0.2642,0.2662,0.2662,0.2662,0.2663,0,0,0.2499,0.2521,0.2521,0.2527,0.2544,0.2549,0.2553,0.2564,0.2568,0.2579,0.2583,0.2595,0.2602,0.261,0.2621,0.2623,0.2613,0.2631,0.2632,0.2627,0.2612,0.2604,0.2603,0.2621,0.262,0.262,0.261,0,0.2489,0.2497,0.251,0.2514,0.2519,0.2535,0.2539,0.255,0.2559,0.2566,0.2578,0.2585,0.2595,0.26,0.2602,0.2614,0.2611,0.2615,0.2625,0.2625,0.262,0.2601,0.2594,0.2584,0.2609,0.2609,0.2609,0,0.2478,0.2487,0.2491,0.2506,0.2509,0.2512,0.2523,0.2529,0.2542,0.2549,0.2557,0.2569,0.2574,0.2583,0.2591,0.2594,0.2598,0.2605,0.2605,0.2606,0.2616,0.2601,0.2581,0.2579,0.2607,0.2607,0.2607,0,0.2459,0.2473,0.2476,0.2482,0.25,0.2501,0.2509,0.2522,0.2527,0.2537,0.2541,0.2551,0.2557,0.2565,0.2579,0.2585,0.2585,0.2596,0.2591,0.2591,0.259,0.259,0.257,0.2594,0.2594,0.2594,0.2594,0,0.2446,0.2448,0.2468,0.247,0.2473,0.2488,0.249,0.2499,0.251,0.2515,0.253,0.2534,0.2553,0.2559,0.2571,0.2575,0.2578,0.2584,0.2586,0.2582,0.2581,0.2585,0.2586,0.2594,0.2594,0.2594,0.2594,0,0.2426,0.2439,0.2444,0.2461,0.2465,0.2466,0.248,0.2483,0.2494,0.2499,0.2501,0.2518,0.2526,0.2542,0.2554,0.2562,0.2564,0.2569,0.2559,0.2561,0.2555,0.2555,0.2537,0.2535,0.2561,0.256,0.256,0,0.2416,0.2418,0.2434,0.2438,0.2445,0.2451,0.2456,0.2472,0.2477,0.249,0.2492,0.2501,0.2509,0.2521,0.2535,0.2545,0.255,0.2543,0.2552,0.2547,0.2549,0.2549,0.2549,0.2541,0.254,0.254,0.254,0,0.2398,0.2404,0.2411,0.242,0.2426,0.2434,0.2443,0.2445,0.2463,0.2468,0.2476,0.2482,0.2494,0.2503,0.2515,0.2523,0.2534,0.2537,0.2536,0.2531,0.2525,0.2528,0.2553,0.2537,0.2537,0.2537,0.2538,0.2538,0.2383,0.2384,0.2396,0.2403,0.2411,0.2418,0.2422,0.2432,0.2439,0.245,0.2459,0.2466,0.2478,0.2494,0.2502,0.2508,0.2513,0.2513,0.2512,0.2512,0.251,0.2524,0.251,0.251,0.2511,0.2511,0.2511,0,0.2365,0.2372,0.2379,0.239,0.2395,0.2405,0.2415,0.2419,0.2424,0.2435,0.2442,0.2451,0.2459,0.2473,0.2483,0.2485,0.249,0.2487,0.2487,0.2488,0.2505,0.2504,0.2482,0.2482,0.2482,0.2482,0.2482,0.2482,0.2356,0.2359,0.2366,0.2373,0.2382,0.2388,0.2393,0.24,0.2408,0.2417,0.2424,0.2433,0.2444,0.2455,0.2463,0.2467,0.2469,0.2464,0.247,0.2485,0.2487,0.249,0.2489,0.2465,0.2465,0.2453,0.2453,0.2453]},{"header":{"parameterUnit":"m.s-1","parameterCategory":1,"la1":30.2991,"la2":30.254,"lo1":-89.0895,"lo2":-89.0444,"dy":0.0017,"dx":0.0017,"nx":28,"ny":28,"refTime":"2024-07-17T21:00:00:Z","depth":0,"parameterNumber":3,"parameterNumberName":"V-component_of_WINDS"},"data":[0,0,0,0,0,0,0,0,0,0,0,0,0,0,0,0,0,0,0,0,0,0,0,0,0,0,0,0,0,0,0,0,0,0,0,0,0,0,0,0,0,0,0,0,0,0,0,0,0,0,0,0,0,0,0,0,0,0,2.7371,2.7372,0,2.7438,2.7438,2.7439,2.7452,2.7452,2.7451,2.7451,2.7518,2.752,2.7522,0,0,0,0,0,0,0,0,0,0,0,0,0,2.7254,2.7256,2.7371,2.7372,2.7373,2.7438,2.7438,2.7439,2.7452,2.7452,2.7451,2.745,2.7517,2.752,2.7522,0,0,0,0,0,0,0,0,0,0,0,0,0,2.7311,2.7256,2.7371,2.7387,2.7389,2.7437,2.7438,2.744,2.7452,2.7452,2.7451,2.745,2.7516,2.7519,2.7523,2.7559,0,0,2.7533,2.7535,0,0,0,0,0,0,0,0,2.7308,2.7315,2.7384,2.7386,2.7389,2.7436,2.7422,2.748,2.7453,2.7428,2.7451,2.745,2.7491,2.7496,2.7511,2.7562,2.7565,2.7534,2.7536,2.7537,2.7538,0,0,0,0,0,0,0,2.7304,2.7312,2.7397,2.7385,2.7388,2.739,2.7398,2.7433,2.7463,2.743,2.7432,2.7439,2.7492,2.7507,2.7512,2.7566,2.7533,2.7536,2.7539,2.754,2.765,2.7651,0,0,0,0,0,0,2.7297,2.7309,2.7395,2.7399,2.7345,2.7393,2.7401,2.7421,2.7463,2.7468,2.744,2.744,2.7502,2.7508,2.7515,2.756,2.7537,2.754,2.7542,2.7649,2.7651,2.7652,0,0,0,0,0,0,2.7294,2.7305,2.7393,2.7355,2.7366,2.7396,2.7418,2.7423,2.7438,2.747,2.7475,2.745,2.7502,2.751,2.7548,2.7562,2.7542,2.7545,2.7648,2.765,2.7651,2.765,0,0,0,0,0,0,2.7291,2.7304,2.7318,2.7355,2.7368,2.7425,2.7419,2.7425,2.7444,2.7445,2.7481,2.7486,2.7502,2.7543,2.7551,2.7567,2.7547,2.7647,2.7649,2.7651,2.7649,2.7651,2.7653,0,0,0,0,0,2.7287,2.7315,2.7319,2.7329,2.7387,2.7426,2.7434,2.7451,2.7445,2.746,2.748,2.7485,2.7559,2.7547,2.7556,2.7573,2.7646,2.7649,2.765,2.7648,2.7651,2.7653,0,0,0,0,0,0,2.728,2.7321,2.7325,2.7366,2.7393,2.7428,2.7447,2.7454,2.7482,2.7481,2.7501,2.7509,2.7546,2.7563,2.7548,2.761,2.7602,2.7606,2.7597,2.76,2.7602,2.7597,2.755,0,0,0,0,0,2.7283,2.7312,2.7346,2.7379,2.7392,2.7417,2.7435,2.7446,2.7474,2.7485,2.7508,2.7535,2.7564,2.7583,2.7612,2.7651,2.7659,2.7667,2.7669,2.7671,2.7674,2.7696,2.77,2.7658,2.7658,2.7658,0,0,2.729,2.7316,2.7333,2.7378,2.74,2.7429,2.7427,2.7458,2.7479,2.749,2.7527,2.7545,2.7576,2.7615,2.7633,2.763,2.7687,2.7674,2.7675,2.7677,2.7698,2.7702,2.7705,2.7659,2.7659,2.7659,0,0,2.7318,2.7341,2.7371,2.7392,2.7425,2.7441,2.7448,2.7483,2.7495,2.7533,2.7541,2.7567,2.7617,2.7638,2.7656,2.769,2.7695,2.7699,2.771,2.7731,2.7734,2.7737,2.7749,2.7753,2.7702,2.7702,2.7702,0,2.7323,2.7367,2.7385,2.7415,2.7435,2.7446,2.7475,2.7495,2.7536,2.7548,2.7545,2.7607,2.7629,2.7673,2.7681,2.7695,2.7703,2.7695,2.7732,2.7735,2.7738,2.775,2.7754,2.7702,2.7702,2.7702,2.7702,0,2.7371,2.7401,2.7421,2.746,2.7481,2.7511,2.7533,2.7552,2.7561,2.7578,2.7615,2.7642,2.7675,2.7687,2.7696,2.7731,2.7728,2.7728,2.7721,2.7742,2.7753,2.7758,2.7703,2.7703,2.7702,2.7702,0,0,2.7397,2.7445,2.7452,2.7469,2.7505,2.7529,2.7558,2.7592,2.7608,2.7635,2.766,2.7701,2.7701,2.7721,2.7732,2.775,2.7775,2.7748,2.7749,2.7752,2.7815,2.7815,2.782,2.7779,2.7779,2.778,2.7812,0,2.7429,2.7483,2.75,2.7545,2.7572,2.7583,2.7608,2.7633,2.7649,2.7675,2.7692,2.7721,2.7719,2.7731,2.7749,2.7768,2.7788,2.7766,2.7802,2.7803,2.7794,2.7826,2.7826,2.7856,2.7817,2.7818,2.7818,0,2.7474,2.7502,2.7549,2.7581,2.7593,2.7617,2.7648,2.7672,2.77,2.771,2.7731,2.7741,2.7772,2.7763,2.7805,2.779,2.7805,2.7817,2.7818,2.7822,2.7812,2.7831,2.7865,2.787,2.7825,2.7825,2.7824,0,2.7488,2.7537,2.7572,2.7586,2.7624,2.764,2.7657,2.7684,2.7702,2.7729,2.7741,2.7771,2.7788,2.7811,2.7828,2.782,2.7868,2.7861,2.7877,2.7877,2.7888,2.7887,2.7925,2.7897,2.7897,2.7897,2.7897,0,2.7522,2.755,2.7578,2.76,2.7632,2.765,2.7681,2.7698,2.7722,2.7746,2.7757,2.7779,2.78,2.7826,2.7839,2.7872,2.7879,2.7888,2.7891,2.7887,2.7886,2.7898,2.7896,2.7898,2.7898,2.7898,2.7898,0,2.7543,2.7563,2.7601,2.7634,2.7643,2.7665,2.7692,2.7713,2.7729,2.776,2.7768,2.7793,2.7823,2.7842,2.7881,2.789,2.7925,2.7928,2.7916,2.7918,2.7933,2.7931,2.798,2.7987,2.7955,2.7955,2.7955,0,2.7563,2.7586,2.762,2.7637,2.7654,2.7682,2.77,2.7718,2.7737,2.777,2.7787,2.7817,2.7843,2.7891,2.7912,2.7941,2.7945,2.796,2.7949,2.7944,2.7945,2.7943,2.7945,2.7961,2.7962,2.7962,2.7962,0,2.7597,2.7606,2.7633,2.7662,2.7684,2.7709,2.7733,2.7747,2.7769,2.7789,2.782,2.784,2.7879,2.7909,2.794,2.7957,2.7963,2.7965,2.797,2.7966,2.7958,2.7963,2.7921,2.7964,2.7964,2.7964,2.7964,2.7963,2.7619,2.7639,2.7666,2.7695,2.7715,2.7737,2.7758,2.7777,2.7803,2.7836,2.7845,2.7877,2.7903,2.7945,2.7962,2.7987,2.7985,2.7993,2.7995,2.7997,2.7997,2.7954,2.7993,2.7993,2.7993,2.7993,2.7993,0,2.7653,2.7671,2.7697,2.7731,2.7754,2.7757,2.7784,2.7803,2.7831,2.7855,2.788,2.7915,2.7944,2.7967,2.7997,2.8012,2.8016,2.8019,2.8018,2.8022,2.7997,2.7989,2.8016,2.8016,2.8016,2.8016,2.8016,2.8016,2.7674,2.7707,2.7719,2.7762,2.7779,2.7811,2.7826,2.7846,2.7865,2.7904,2.7928,2.7943,2.7966,2.7998,2.8024,2.803,2.8041,2.8044,2.805,2.8027,2.8024,2.8021,2.8014,2.8046,2.8046,2.8074,2.8074,2.8074]}]]